FENGYUN 1C DEB, 31563

Orbit data source: Space-Track

FENGYUN 1C DEB, 31563 is space debris in SSO originally from a launch on Mon, 10 May 1999 UTC launched from the Taiyaun Space Center, China (TSC). Fengyun 1C debris stems from the Chinese weather satellite Fengyun-1C, which was intentionally destroyed by a Chinese anti-satellite missile in 2007. This event dramatically increased the amount of space debris, with thousands of trackable fragments posing hazards to satellites and human spaceflight. The Fengyun 1C debris cloud has become a focal point in discussions about space sustainability and the need for international regulations to prevent the creation of new debris.

Loading next visibility...
Identifier
31563, 1999-025BZE
Orbit
SSO
Country
Flag of CNCN / PRC
Related business
Manufacturer
Unknown
Mission
Spacecraft
Bus & Motor
Unknown
Mass
Unknown
Launch date (UTC)
1999-05-10 (27 years ago)
Launch vehicle
Unknown
Launch site
Taiyaun Space Center, China (TSC)
Object type
Payload
Rocket body
Debris
Shape & HBR
Unknown shape, 0.1 m
Radar Cross Section
Small (<0.1 m²)

Expand to show TLE details & history
Last TLE update: 3 days ago

TLE from 3 days ago
0 FENGYUN 1C DEB
1 31563U 99025BZE 26167.22285973  .00002386  00000-0  40236-3 0  9990
2 31563  98.9702 342.6060 0110072 226.8204 132.3761 14.66691138 12462
Epoch: 2026-06-16T05:20Z
TLE epoch observation values (Epoch: 2026-06-16T05:20:55.080Z)
Latitude
0.00004°
Longitude
-2.12149°
Altitude
727.393 km
Speed
7.463 km/s
True Right ascension
22h 50m 25s
True Declination
0° 00' 00"
Sunlit
Object was in daylight at epoch
Visualization orbit readout
Latitude
Unknown
Longitude
Unknown
Altitude
Unknown
Speed
Unknown
Apparent Right ascension
Unknown
Apparent Declination
Unknown
Sunlit
N/A
Visualization observer readout
Local Sidereal Time
14:38:38
Azimuth
Unknown
Elevation
Unknown
Doppler factor
Unknown
Orbital elements
Apogee altitude
746.327 km
Perigee altitude
591.193 km
Semi-major axis
7,046.897 km
Eccentricity
0.01101
Inclination
98.9702°
RAAN
342.606°
Arg. of periapsis
226.8204°
True anomaly
133.29929°
Mean anomaly
132.3761°
Eccentric anomaly
132.83855°
Mean motion
3.66899 °/min
Orbital period
98.12 mins
BSTAR
0.00040236
Loading maneuver chart data...
Computing Atmospheric mass density...

Documentation

Showing up to 5 results
|